Tracking 19564 objects as of 19-Mar-2019
HD Live streaming from Space Station
objects crossing your sky now

COSMOS 1492 (GLONASS)

Track COSMOS 1492 (GLONASS) now!
COSMOS 1492 (GLONASS) is classified as:


NORAD ID: 14260
Int'l Code: 1983-084C
Perigee: 19,160.9 km
Apogee: 19,168.0 km
Inclination: 64.1 °
Period: 676.8 minutes
Semi major axis: 25535 km
RCS: 0.3319 m2 (medium)
Launch date: August 10, 1983
Source: Commonwealth of Independent States (former USSR) (CIS)
Launch site: TYURATAM MISSILE AND SPACE COMPLEX (TTMTR)
aabbcc
Your satellite tracking list
Your tracking list is empty




NASA's NSSDC Master Catalog

Two Line Element Set (TLE):
1 14260U 83084C   19077.34977056 +.00000002 +00000-0 +00000-0 0  9993
2 14260 064.0630 165.3856 0001385 316.4364 138.9395 02.12758902275279
Source of the keplerian elements: AFSPC